Location: Kawakawa
(35.3830°S, 174.0670°E)
Time: 00:13:52
(UTC+13:00)

Altair - Pass Details

Date: 11 December 2019
Orbit: 1502 x 1682 km, 47.2° (Epoch: 24 January)

Event Time Altitude Azimuth Distance (km) Brightness Sun altitude
Rises 08:43:29 0° 330° (NNW) 4,702 9.7 30.2°
Reaches altitude 10° 08:46:37 10° 336° (NNW) 3,747 9.3 30.9°
Maximum altitude 08:55:39 49° 47° (NE) 1,995 9.1 32.7°
Drops below altitude 10° 09:05:04 10° 117° (ESE) 3,908 10.8 34.6°
Sets 09:08:23 0° 122° (ESE) 4,917 10.9 35.3°
